TimeCST,TemperatureF,Dew PointF,Humidity,Sea Level PressureIn,VisibilityMPH,Wind Direction,Wind SpeedMPH,Gust SpeedMPH,PrecipitationIn,Events,Conditions,WindDirDegrees,DateUTC
12:15 AM,68.0,66.2,94,29.82,1.5,SW,8.1,-,N/A,,Overcast,230,2013-02-13 06:15:00
12:35 AM,68.0,68.0,100,29.80,2.5,SW,3.5,-,N/A,,Overcast,230,2013-02-13 06:35:00
12:55 AM,68.0,68.0,100,29.80,3.0,SW,4.6,-,N/A,,Overcast,220,2013-02-13 06:55:00
1:15 AM,68.0,68.0,100,29.79,3.0,SW,5.8,-,N/A,,Overcast,220,2013-02-13 07:15:00
1:35 AM,68.0,68.0,100,29.81,1.8,SW,8.1,-,N/A,,Overcast,230,2013-02-13 07:35:00
1:55 AM,68.0,66.2,94,29.81,1.0,SW,5.8,-,N/A,,Overcast,230,2013-02-13 07:55:00
2:15 AM,68.0,66.2,94,29.82,2.0,SW,5.8,-,N/A,,Overcast,230,2013-02-13 08:15:00
2:35 AM,66.2,66.2,100,29.81,3.0,SW,3.5,-,N/A,,Overcast,220,2013-02-13 08:35:00
2:55 AM,66.2,66.2,100,29.82,2.5,SW,4.6,-,N/A,,Overcast,230,2013-02-13 08:55:00
3:15 AM,66.2,64.4,94,29.83,2.0,WSW,5.8,-,N/A,,Overcast,240,2013-02-13 09:15:00
3:35 AM,64.4,64.4,100,29.84,3.0,West,4.6,-,N/A,,Overcast,280,2013-02-13 09:35:00
3:55 AM,62.6,60.8,94,29.85,7.0,NW,8.1,-,N/A,,Scattered Clouds,310,2013-02-13 09:55:00
4:15 AM,62.6,59.0,88,29.85,7.0,WNW,6.9,-,N/A,,Clear,300,2013-02-13 10:15:00
4:35 AM,60.8,59.0,94,29.86,10.0,WNW,3.5,-,N/A,,Clear,290,2013-02-13 10:35:00
4:55 AM,60.8,57.2,88,29.87,10.0,West,5.8,-,N/A,,Clear,280,2013-02-13 10:55:00
5:15 AM,60.8,57.2,88,29.88,7.0,West,3.5,-,N/A,,Clear,280,2013-02-13 11:15:00
5:35 AM,59.0,55.4,88,29.88,7.0,West,3.5,-,N/A,,Clear,280,2013-02-13 11:35:00
6:15 AM,59.0,55.4,88,29.88,10.0,Calm,Calm,-,N/A,,Clear,0,2013-02-13 12:15:00
6:35 AM,59.0,55.4,88,29.90,10.0,West,4.6,-,N/A,,Scattered Clouds,280,2013-02-13 12:35:00
6:55 AM,59.0,53.6,82,29.90,7.0,West,3.5,-,N/A,,Mostly Cloudy,280,2013-02-13 12:55:00
7:15 AM,59.0,53.6,82,29.91,7.0,WNW,4.6,-,N/A,,Scattered Clouds,290,2013-02-13 13:15:00
7:35 AM,59.0,51.8,77,29.93,4.0,WNW,10.4,17.3,N/A,,Haze,290,2013-02-13 13:35:00
7:55 AM,57.2,51.8,82,29.93,7.0,WNW,11.5,18.4,N/A,,Clear,300,2013-02-13 13:55:00
8:15 AM,57.2,51.8,82,29.93,5.0,WNW,10.4,-,N/A,,Haze,300,2013-02-13 14:15:00
8:35 AM,57.2,51.8,82,29.92,7.0,WNW,9.2,-,N/A,,Clear,300,2013-02-13 14:35:00
8:55 AM,59.0,51.8,77,29.92,7.0,NW,12.7,-,N/A,,Clear,310,2013-02-13 14:55:00
9:15 AM,59.0,51.8,77,29.90,7.0,NW,10.4,-,N/A,,Clear,310,2013-02-13 15:15:00
9:35 AM,59.0,50.0,72,29.94,7.0,WNW,11.5,17.3,N/A,,Clear,300,2013-02-13 15:35:00
10:15 AM,55.4,50.0,82,29.94,7.0,NW,10.4,17.3,N/A,,Mostly Cloudy,320,2013-02-13 16:15:00
10:35 AM,55.4,50.0,82,29.96,7.0,NW,11.5,20.7,N/A,,Mostly Cloudy,310,2013-02-13 16:35:00
10:55 AM,55.4,48.2,77,29.98,7.0,NW,8.1,-,N/A,,Light Drizzle,310,2013-02-13 16:55:00
11:15 AM,55.4,48.2,77,29.97,10.0,NW,9.2,-,N/A,,Light Drizzle,320,2013-02-13 17:15:00
11:35 AM,55.4,48.2,77,29.96,7.0,NW,10.4,-,N/A,,Scattered Clouds,320,2013-02-13 17:35:00
11:55 AM,57.2,50.0,77,29.96,10.0,NNW,5.8,-,N/A,,Mostly Cloudy,330,2013-02-13 17:55:00
12:15 PM,57.2,50.0,77,29.97,7.0,NW,9.2,-,N/A,,Overcast,310,2013-02-13 18:15:00
12:35 PM,55.4,48.2,77,29.97,7.0,NW,11.5,-,N/A,,Overcast,310,2013-02-13 18:35:00
12:55 PM,55.4,48.2,77,29.97,10.0,NW,9.2,-,N/A,,Overcast,310,2013-02-13 18:55:00
1:15 PM,53.6,48.2,82,29.95,7.0,WNW,8.1,-,N/A,,Overcast,300,2013-02-13 19:15:00
1:35 PM,53.6,48.2,82,29.96,7.0,NW,10.4,-,N/A,,Overcast,320,2013-02-13 19:35:00
1:55 PM,51.8,50.0,94,29.95,7.0,NW,12.7,18.4,0.01,Rain,Rain,310,2013-02-13 19:55:00
2:15 PM,51.8,50.0,94,29.94,7.0,NW,8.1,17.3,0.02,Rain,Rain,320,2013-02-13 20:15:00
2:35 PM,50.0,48.2,94,29.96,10.0,NW,9.2,-,0.02,Rain,Rain,320,2013-02-13 20:35:00
2:55 PM,50.0,46.4,87,29.99,10.0,NW,12.7,21.9,0.03,Rain,Light Rain,310,2013-02-13 20:55:00
3:15 PM,50.0,46.4,87,29.97,10.0,NW,10.4,-,N/A,Rain,Rain,320,2013-02-13 21:15:00
3:35 PM,50.0,46.4,87,29.96,10.0,NNW,9.2,-,0.02,Rain,Light Rain,340,2013-02-13 21:35:00
3:55 PM,50.0,46.4,87,29.97,10.0,NNW,3.5,-,0.03,Rain,Rain,330,2013-02-13 21:55:00
4:15 PM,50.0,46.4,87,29.98,10.0,NW,3.5,-,0.01,Rain,Light Rain,320,2013-02-13 22:15:00
4:35 PM,50.0,46.4,87,29.98,7.0,NNW,8.1,-,0.01,,Mostly Cloudy,330,2013-02-13 22:35:00
4:55 PM,50.0,46.4,87,29.97,7.0,NNW,4.6,-,0.01,,Mostly Cloudy,330,2013-02-13 22:55:00
5:15 PM,50.0,46.4,87,29.99,7.0,NNW,4.6,-,N/A,,Mostly Cloudy,330,2013-02-13 23:15:00
5:35 PM,50.0,46.4,87,30.00,7.0,NNW,4.6,-,N/A,,Mostly Cloudy,330,2013-02-13 23:35:00
5:55 PM,50.0,46.4,87,29.99,7.0,NNW,6.9,-,N/A,,Scattered Clouds,340,2013-02-13 23:55:00
6:15 PM,50.0,46.4,87,29.99,7.0,NNW,3.5,-,N/A,,Clear,330,2013-02-14 00:15:00
6:35 PM,50.0,46.4,87,29.99,7.0,NNW,5.8,-,N/A,,Clear,330,2013-02-14 00:35:00
7:15 PM,50.0,46.4,87,30.01,10.0,Calm,Calm,-,N/A,,Clear,0,2013-02-14 01:15:00
7:35 PM,50.0,46.4,87,30.00,7.0,NNW,4.6,-,N/A,,Scattered Clouds,340,2013-02-14 01:35:00
7:55 PM,50.0,46.4,87,30.03,7.0,NNW,3.5,-,N/A,,Mostly Cloudy,330,2013-02-14 01:55:00
8:15 PM,50.0,44.6,82,30.02,7.0,NNW,4.6,-,N/A,,Mostly Cloudy,340,2013-02-14 02:15:00
8:35 PM,50.0,44.6,82,30.03,7.0,NNW,4.6,-,N/A,,Mostly Cloudy,330,2013-02-14 02:35:00
8:55 PM,50.0,44.6,82,30.05,7.0,NW,3.5,-,N/A,,Overcast,320,2013-02-14 02:55:00
9:15 PM,50.0,44.6,82,30.04,10.0,NNW,4.6,-,N/A,,Mostly Cloudy,340,2013-02-14 03:15:00
9:35 PM,50.0,44.6,82,30.06,10.0,NNW,3.5,-,N/A,,Mostly Cloudy,330,2013-02-14 03:35:00
9:55 PM,50.0,42.8,76,30.06,7.0,NNW,5.8,-,N/A,,Mostly Cloudy,340,2013-02-14 03:55:00
10:15 PM,50.0,42.8,76,30.06,10.0,NNW,5.8,-,N/A,,Clear,340,2013-02-14 04:15:00
10:35 PM,50.0,42.8,76,30.06,7.0,NNW,4.6,-,N/A,,Clear,330,2013-02-14 04:35:00
10:55 PM,48.2,42.8,82,30.06,10.0,NNW,5.8,-,N/A,,Clear,340,2013-02-14 04:55:00
11:15 PM,48.2,42.8,82,30.07,7.0,NNW,4.6,-,N/A,,Clear,340,2013-02-14 05:15:00
11:35 PM,48.2,42.8,82,30.07,10.0,North,3.5,-,N/A,,Clear,350,2013-02-14 05:35:00